Whiting Field Naval Air Station South Airport
KNDZ : now visible

Airfield :











YOU CAN JOIN US ON...

 
LOGIN :

Register | Disclaimer

   EN    FR    IT 

 









Legend :    VFR   Marginal VFR   IFR   Intensive IFR   Very Intensive IFR
Visi :
Ceiling :
>= 8 km
>= 3000ft
5 to 8 km
1000 to 3000 ft
1500m to 5 km
500 to 1000 ft
800 to 1500m
200 to 500 ft
< 800m
< 200 ft
Symbols :   Thunderstorms  Fog  Heavy snow  Heavy precipitations  Wind > 20 kt






- Airport Elevation : 177 ft


KNDZ - Whiting Field Naval Air Station South

CURRENT METAR :
  • 010056Z 33016G23 10SM FEW045 07/M02 A3010 RMK SLP182 T00721017

EXPIRED METARs :
  • 302356Z 32007KT 10SM FEW045 FEW110 08/01 A3006 RMK SLP167 T00780006 10117 20078 53022
  • 302256Z 32008KT 10SM FEW040 FEW100 09/01 A3002 RMK SLP153 T00890006

TAF N/A
KZJX FIR / North America



MET'MAP, your aeronautical weather chart ! - Copyright ORBIFLY December 2007 - Disclaimer

ORBIFLY MET'MAP TEAM :

Programming & Development : Alexandra Zaïnal
Concept & original design : Baudouin d'Aumeries
Assistance for programming : Marc-Olivier Méhu
Technical & hardware support : Manuel Goepfert

Contact : metmap@orbifly.com




SOURCES & CREDITS :

   NOAA       Earth
Advisory